Farmington, NM

10:17 AM MST on November 13, 2019 (GMT -0700)
Four Corners Regional

Weather History for KFMN - October, 2019

Change the Weather History Date:

Monday, October 21, 2019

  Actual Average Record
Temperature  
Mean Temperature 41 °F -  
Max Temperature 57 °F 62 °F 80 °F (2003)
Min Temperature 25 °F 34 °F 26 °F (1990)
Degree Days  
Heating Degree Days 24    
Moisture  
Dew Point 7 °F    
Average Humidity 25    
Maximum Humidity 37    
Minimum Humidity 16    
Precipitation  
Precipitation 0.00 in - - ()
Sea Level Pressure  
Sea Level Pressure 30.14 in    
Wind  
Wind Speed 6 mph ()    
Max Wind Speed 23 mph    
Max Gust Speed 39 mph    
Visibility 9.5 miles    
Events      
Averages and records for this station are not official NWS values.
T = Trace of Precipitation, MM = Missing Value Source: Averaged Metar Reports

Daily Weather History Graph

Daily Weather History Graph

Search for Another Location

Airport or City:

Astronomy

Oct. 21, 2019 Rise Set
Actual Time 7:25 AM MDT 6:28 PM MDT
Civil Twilight 6:59 AM MDT 6:55 PM MDT
Nautical Twilight 6:29 AM MDT 7:25 PM MDT
Astronomical Twilight 5:59 AM MDT 7:55 PM MDT
Moon No Moon Rise 2:40 PM MDT (10/21)
Length of Visible Light 11h 55m
Length of Day
11h 03m
Waning Gibbous, 47% of the Moon is Illuminated
Oct 21
Waning Gibbous
Oct 27
New
Nov 4
First Quarter
Nov 12
Full
Nov 19
Last Quarter

Hourly Weather History & Observations

Time (MDT) Temp. Windchill Dew Point Humidity Pressure Visibility Wind Dir Wind Speed Gust Speed Precip Events Conditions
12:53 AM 35.1 °F - 1.9 °F 25% 30.06 in 10.0 mi Calm Calm - N/A   Clear
1:53 AM 30.0 °F - 1.0 °F 29% 30.07 in 10.0 mi Calm Calm - N/A   Clear
2:53 AM 30.9 °F - 1.9 °F 29% 30.07 in 10.0 mi Calm Calm - N/A   Clear
3:53 AM 30.0 °F 26.5 °F 1.9 °F 30% 30.07 in 10.0 mi WNW 3.5 mph - N/A   Clear
4:53 AM 25.0 °F - 1.0 °F 36% 30.09 in 10.0 mi Calm Calm - N/A   Clear
5:53 AM 25.0 °F - 1.0 °F 36% 30.11 in 10.0 mi Calm Calm - N/A   Clear
6:53 AM 25.0 °F - 1.9 °F 37% 30.15 in 10.0 mi Calm Calm - N/A   Clear
7:53 AM 26.1 °F - 1.9 °F 35% 30.16 in 10.0 mi Calm Calm - N/A   Clear
8:53 AM 34.0 °F - 7.0 °F 32% 30.17 in 10.0 mi Calm Calm - N/A   Clear
9:53 AM 37.9 °F 34.4 °F 8.1 °F 29% 30.19 in 10.0 mi SW 4.6 mph - N/A   Clear
10:53 AM 46.9 °F - 8.1 °F 21% 30.16 in 7.0 mi WNW 12.7 mph - N/A   Clear
11:53 AM 52.0 °F - 9.0 °F 18% 30.13 in 10.0 mi West 23.0 mph 29.9 mph N/A   Clear
12:53 PM 54.0 °F - 10.9 °F 18% 30.11 in 10.0 mi WNW 21.9 mph 32.2 mph N/A   Clear
1:53 PM 55.9 °F - 12.0 °F 18% 30.11 in 10.0 mi NW 21.9 mph 33.4 mph N/A   Clear
2:53 PM 57.0 °F - 12.0 °F 17% 30.09 in 5.0 mi WNW 23.0 mph 39.1 mph N/A   Haze
3:53 PM 57.9 °F - 10.9 °F 16% 30.09 in 6.0 mi WNW 20.7 mph 33.4 mph N/A   Haze
4:53 PM 57.0 °F - 12.0 °F 17% 30.12 in 10.0 mi WNW 18.4 mph 33.4 mph N/A   Clear
5:53 PM 55.9 °F - 10.0 °F 16% 30.14 in 10.0 mi WNW 23.0 mph 32.2 mph N/A   Clear
6:53 PM 53.1 °F - 10.0 °F 18% 30.18 in 10.0 mi WNW 11.5 mph - N/A   Clear
7:53 PM 46.9 °F - 9.0 °F 21% 30.22 in 10.0 mi North 6.9 mph - N/A   Clear
9:53 PM 48.0 °F - 10.9 °F 22% 30.23 in 10.0 mi NW 8.1 mph - N/A   Clear
10:53 PM 44.1 °F 40.8 °F 10.0 °F 25% 30.23 in 10.0 mi WNW 5.8 mph - N/A   Clear
11:53 PM 42.1 °F 40.2 °F 10.0 °F 27% 30.23 in 10.0 mi West 3.5 mph - N/A   Clear